| time (UTC) | temp F | wind direction | speed MPH | gust MPH | rain 1hr in | rain 24hr in | rain mn in | humidity % | barometer mb |
| 20260507213521 | 68 | 270 | 0.0 | 0.0 | 0.00 | 0.00 | 0.00 | 6 | 1009.0 |
| 20260507212925 | 68 | 270 | 0.0 | 0.0 | 0.00 | 0.00 | 0.00 | 6 | 1009.0 |
| 20260507212329 | 68 | 270 | 0.0 | 0.0 | 0.00 | 0.00 | 0.00 | 6 | 1009.0 |
| 20260507211734 | 68 | 270 | 0.0 | 0.0 | 0.00 | 0.00 | 0.00 | 6 | 1009.0 |
| 20260507211137 | 69 | 270 | 2.0 | 2.0 | 0.00 | 0.00 | 0.00 | 6 | 1009.0 |
| 20260507210541 | 69 | 315 | 0.0 | 0.0 | 0.00 | 0.00 | 0.00 | 6 | 1009.0 |
| 20260507205945 | 69 | 225 | 0.0 | 0.0 | 0.00 | 0.00 | 0.00 | 6 | 1009.0 |
| 20260507205350 | 70 | 225 | 0.0 | 0.0 | 0.00 | 0.00 | 0.00 | 6 | 1009.0 |
| 20260507204754 | 70 | 225 | 0.0 | 0.0 | 0.00 | 0.00 | 0.00 | 6 | 1009.0 |
| 20260507204159 | 70 | 225 | 0.0 | 0.0 | 0.00 | 0.00 | 0.00 | 6 | 1009.0 |
| 20260507203603 | 70 | 225 | 0.0 | 0.0 | 0.00 | 0.00 | 0.00 | 6 | 1009.0 |
| 20260507203008 | 70 | 225 | 0.0 | 0.0 | 0.00 | 0.00 | 0.00 | 6 | 1009.0 |
| 20260507202409 | 71 | 225 | 0.0 | 0.0 | 0.00 | 0.00 | 0.00 | 6 | 1009.0 |
| 20260507201813 | 71 | 225 | 0.0 | 0.0 | 0.00 | 0.00 | 0.00 | 6 | 1009.0 |
| 20260507200705 | 70 | 225 | 0.0 | 0.0 | 0.00 | 0.00 | 0.00 | 6 | 1009.0 |
| 20260507200106 | 70 | 225 | 0.0 | 0.0 | 0.00 | 0.00 | 0.00 | 6 | 1008.0 |
| 20260507195507 | 70 | 225 | 0.0 | 0.0 | 0.00 | 0.00 | 0.00 | 6 | 1008.0 |
| 20260507194912 | 70 | 225 | 0.0 | 2.0 | 0.00 | 0.00 | 0.00 | 6 | 1008.0 |
| 20260507194316 | 70 | 225 | 1.0 | 2.0 | 0.00 | 0.00 | 0.00 | 6 | 1008.0 |
| 20260507193721 | 71 | 225 | 2.0 | 2.0 | 0.00 | 0.00 | 0.00 | 6 | 1008.0 |
| 20260507193122 | 71 | 225 | 1.0 | 2.0 | 0.00 | 0.00 | 0.00 | 6 | 1008.0 |
| 20260507192527 | 71 | 225 | 0.0 | 2.0 | 0.00 | 0.00 | 0.00 | 6 | 1008.0 |
| 20260507191928 | 72 | 225 | 1.0 | 2.0 | 0.00 | 0.00 | 0.00 | 6 | 1008.0 |
| 20260507191333 | 73 | 225 | 2.0 | 2.0 | 0.00 | 0.00 | 0.00 | 6 | 1008.0 |
| 20260507190736 | 73 | 225 | 0.0 | 1.0 | 0.00 | 0.00 | 0.00 | 6 | 1008.0 |
| 20260507190140 | 73 | 225 | 2.0 | 2.0 | 0.00 | 0.00 | 0.00 | 5 | 1008.0 |
| 20260507185545 | 74 | 225 | 2.0 | 3.0 | 0.00 | 0.00 | 0.00 | 5 | 1008.0 |
| 20260507184950 | 75 | 225 | 2.0 | 2.0 | 0.00 | 0.00 | 0.00 | 5 | 1008.0 |
| 20260507184355 | 75 | 225 | 1.0 | 1.0 | 0.00 | 0.00 | 0.00 | 5 | 1008.0 |
| 20260507183246 | 76 | 225 | 2.0 | 2.0 | 0.00 | 0.00 | 0.00 | 5 | 1008.0 |
| 20260507182651 | 77 | 225 | 2.0 | 2.0 | 0.00 | 0.00 | 0.00 | 5 | 1008.0 |
| 20260507182056 | 78 | 225 | 2.0 | 2.0 | 0.00 | 0.00 | 0.00 | 5 | 1008.0 |
| 20260507181501 | 79 | 225 | 2.0 | 2.0 | 0.00 | 0.00 | 0.00 | 5 | 1008.0 |
| 20260507180905 | 79 | 225 | 3.0 | 3.0 | 0.00 | 0.00 | 0.00 | 4 | 1008.0 |
| 20260507180310 | 81 | 225 | 3.0 | 4.0 | 0.00 | 0.00 | 0.00 | 4 | 1008.0 |
| 20260507175714 | 85 | 225 | 3.0 | 3.0 | 0.00 | 0.00 | 0.00 | 4 | 1008.0 |
| 20260507175119 | 88 | 225 | 1.0 | 1.0 | 0.00 | 0.00 | 0.00 | 3 | 1008.0 |
| 20260507174524 | 89 | 180 | 0.0 | 1.0 | 0.00 | 0.00 | 0.00 | 4 | 1007.0 |
| 20260507173929 | 90 | 180 | 1.0 | 1.0 | 0.00 | 0.00 | 0.00 | 4 | 1007.0 |
| 20260507173334 | 90 | 180 | 0.0 | 1.0 | 0.00 | 0.00 | 0.00 | 4 | 1007.0 |
| 20260507172739 | 89 | 180 | 0.0 | 0.0 | 0.00 | 0.00 | 0.00 | 4 | 1007.0 |
| 20260507172144 | 89 | 180 | 0.0 | 0.0 | 0.00 | 0.00 | 0.00 | 3 | 1007.0 |
| 20260507171548 | 90 | 180 | 0.0 | 0.0 | 0.00 | 0.00 | 0.00 | 4 | 1007.0 |
| 20260507170953 | 89 | 135 | 0.0 | 0.0 | 0.00 | 0.00 | 0.00 | 4 | 1007.0 |
| 20260507170358 | 88 | 135 | 0.0 | 1.0 | 0.00 | 0.00 | 0.00 | 4 | 1007.0 |
| 20260507165759 | 87 | 135 | 0.0 | 1.0 | 0.00 | 0.00 | 0.00 | 4 | 1007.0 |
| 20260507165204 | 86 | 135 | 1.0 | 1.0 | 0.00 | 0.00 | 0.00 | 4 | 1007.0 |
| 20260507164609 | 85 | 180 | 0.0 | 1.0 | 0.00 | 0.00 | 0.00 | 4 | 1007.0 |
| 20260507164014 | 85 | 180 | 1.0 | 1.0 | 0.00 | 0.00 | 0.00 | 4 | 1007.0 |
| 20260507163418 | 84 | 180 | 1.0 | 2.0 | 0.00 | 0.00 | 0.00 | 4 | 1007.0 |
| 20260507162823 | 85 | 158 | 1.0 | 2.0 | 0.00 | 0.00 | 0.00 | 4 | 1007.0 |
| 20260507162228 | 84 | 180 | 2.0 | 2.0 | 0.00 | 0.00 | 0.00 | 4 | 1007.0 |
| 20260507161634 | 84 | 180 | 2.0 | 3.0 | 0.00 | 0.00 | 0.00 | 4 | 1007.0 |
| 20260507161038 | 83 | 225 | 3.0 | 3.0 | 0.00 | 0.00 | 0.00 | 4 | 1007.0 |
| 20260507160443 | 83 | 135 | 2.0 | 2.0 | 0.00 | 0.00 | 0.00 | 4 | 1007.0 |
| 20260507155848 | 82 | 135 | 0.0 | 0.0 | 0.00 | 0.00 | 0.00 | 4 | 1007.0 |
| 20260507155253 | 81 | 180 | 1.0 | 2.0 | 0.00 | 0.00 | 0.00 | 4 | 1007.0 |
| 20260507154658 | 81 | 225 | 0.0 | 1.0 | 0.00 | 0.00 | 0.00 | 4 | 1007.0 |
| 20260507154100 | 81 | 180 | 0.0 | 1.0 | 0.00 | 0.00 | 0.00 | 4 | 1007.0 |
| 20260507153505 | 80 | 180 | 0.0 | 0.0 | 0.00 | 0.00 | 0.00 | 4 | 1007.0 |
| 20260507152909 | 80 | 45 | 1.0 | 1.0 | 0.00 | 0.00 | 0.00 | 4 | 1007.0 |
| 20260507152311 | 80 | 225 | 1.0 | 3.0 | 0.00 | 0.00 | 0.00 | 4 | 1007.0 |
| 20260507151715 | 81 | 225 | 0.0 | 1.0 | 0.00 | 0.00 | 0.00 | 4 | 1007.0 |
| 20260507151119 | 81 | 0 | 3.0 | 3.0 | 0.00 | 0.00 | 0.00 | 4 | 1007.0 |
| 20260507150524 | 81 | 0 | 2.0 | 2.0 | 0.00 | 0.00 | 0.00 | 4 | 1007.0 |
| 20260507145928 | 81 | 180 | 0.0 | 3.0 | 0.00 | 0.00 | 0.00 | 4 | 1007.0 |
| 20260507145333 | 81 | 225 | 0.0 | 1.0 | 0.00 | 0.00 | 0.00 | 4 | 1007.0 |
| 20260507144738 | 81 | 180 | 3.0 | 3.0 | 0.00 | 0.00 | 0.00 | 4 | 1007.0 |
| 20260507144143 | 81 | 225 | 2.0 | 2.0 | 0.00 | 0.00 | 0.00 | 4 | 1007.0 |
| 20260507143548 | 81 | 135 | 1.0 | 2.0 | 0.00 | 0.00 | 0.00 | 4 | 1007.0 |
| 20260507142952 | 81 | 225 | 1.0 | 1.0 | 0.00 | 0.00 | 0.00 | 4 | 1007.0 |
| 20260507142357 | 81 | 315 | 0.0 | 1.0 | 0.00 | 0.00 | 0.00 | 4 | 1007.0 |
| 20260507141802 | 81 | 135 | 0.0 | 3.0 | 0.00 | 0.00 | 0.00 | 4 | 1007.0 |
| 20260507141203 | 81 | 0 | 0.0 | 2.0 | 0.00 | 0.00 | 0.00 | 4 | 1007.0 |
| 20260507140609 | 80 | 180 | 0.0 | 1.0 | 0.00 | 0.00 | 0.00 | 4 | 1008.0 |
| 20260507140010 | 80 | 23 | 1.0 | 1.0 | 0.00 | 0.00 | 0.00 | 5 | 1008.0 |
| 20260507135414 | 80 | 135 | 0.0 | 1.0 | 0.00 | 0.00 | 0.00 | 4 | 1008.0 |
| 20260507134819 | 79 | 315 | 1.0 | 2.0 | 0.00 | 0.00 | 0.00 | 5 | 1008.0 |
| 20260507134224 | 79 | 315 | 2.0 | 2.0 | 0.00 | 0.00 | 0.00 | 5 | 1008.0 |
| 20260507133629 | 79 | 180 | 2.0 | 2.0 | 0.00 | 0.00 | 0.00 | 5 | 1008.0 |
| 20260507133034 | 79 | 45 | 0.0 | 4.0 | 0.00 | 0.00 | 0.00 | 4 | 1008.0 |
| 20260507132438 | 79 | 0 | 3.0 | 3.0 | 0.00 | 0.00 | 0.00 | 5 | 1008.0 |
| 20260507131843 | 78 | 270 | 1.0 | 2.0 | 0.00 | 0.00 | 0.00 | 4 | 1008.0 |
| 20260507131248 | 78 | 225 | 0.0 | 1.0 | 0.00 | 0.00 | 0.00 | 5 | 1008.0 |
| 20260507130653 | 77 | 338 | 2.0 | 2.0 | 0.00 | 0.00 | 0.00 | 5 | 1008.0 |
| 20260507130054 | 77 | 315 | 1.0 | 4.0 | 0.00 | 0.00 | 0.00 | 5 | 1008.0 |
| 20260507125459 | 77 | 270 | 1.0 | 3.0 | 0.00 | 0.00 | 0.00 | 5 | 1008.0 |
| 20260507124903 | 77 | 315 | 3.0 | 4.0 | 0.00 | 0.00 | 0.00 | 5 | 1008.0 |
| 20260507124305 | 77 | 315 | 0.0 | 3.0 | 0.00 | 0.00 | 0.00 | 5 | 1008.0 |
| 20260507123710 | 76 | 0 | 2.0 | 2.0 | 0.00 | 0.00 | 0.00 | 5 | 1008.0 |
| 20260507123114 | 76 | 225 | 2.0 | 2.0 | 0.00 | 0.00 | 0.00 | 5 | 1008.0 |
| 20260507122515 | 76 | 270 | 4.0 | 4.0 | 0.00 | 0.00 | 0.00 | 5 | 1008.0 |
| 20260507121920 | 76 | 180 | 0.0 | 2.0 | 0.00 | 0.00 | 0.00 | 5 | 1008.0 |
| 20260507121325 | 76 | 0 | 3.0 | 3.0 | 0.00 | 0.00 | 0.00 | 5 | 1008.0 |
| 20260507120729 | 76 | 45 | 3.0 | 3.0 | 0.00 | 0.00 | 0.00 | 5 | 1008.0 |
| 20260507120134 | 76 | 180 | 2.0 | 2.0 | 0.00 | 0.00 | 0.00 | 5 | 1008.0 |
| 20260507115536 | 75 | 225 | 1.0 | 1.0 | 0.00 | 0.00 | 0.00 | 6 | 1008.0 |
| 20260507114940 | 75 | 180 | 1.0 | 1.0 | 0.00 | 0.00 | 0.00 | 6 | 1008.0 |
| 20260507114345 | 74 | 225 | 1.0 | 1.0 | 0.00 | 0.00 | 0.00 | 6 | 1008.0 |
| 20260507113747 | 74 | 315 | 3.0 | 3.0 | 0.00 | 0.00 | 0.00 | 5 | 1008.0 |
| 20260507113148 | 74 | 0 | 1.0 | 2.0 | 0.00 | 0.00 | 0.00 | 6 | 1008.0 |
| 20260507112553 | 74 | 270 | 2.0 | 2.0 | 0.00 | 0.00 | 0.00 | 6 | 1009.0 |
| 20260507111957 | 73 | 315 | 2.0 | 2.0 | 0.00 | 0.00 | 0.00 | 6 | 1009.0 |
| 20260507111402 | 73 | 225 | 0.0 | 2.0 | 0.00 | 0.00 | 0.00 | 6 | 1009.0 |
| 20260507110807 | 72 | 45 | 1.0 | 2.0 | 0.00 | 0.00 | 0.00 | 6 | 1009.0 |
| 20260507110211 | 72 | 45 | 2.0 | 5.0 | 0.00 | 0.00 | 0.00 | 6 | 1009.0 |
| 20260507105616 | 72 | 45 | 1.0 | 2.0 | 0.00 | 0.00 | 0.00 | 6 | 1009.0 |
| 20260507105021 | 72 | 45 | 5.0 | 5.0 | 0.00 | 0.00 | 0.00 | 6 | 1009.0 |
| 20260507104422 | 72 | 45 | 1.0 | 2.0 | 0.00 | 0.00 | 0.00 | 6 | 1009.0 |
| 20260507103823 | 71 | 315 | 2.0 | 3.0 | 0.00 | 0.00 | 0.00 | 6 | 1009.0 |
| 20260507103228 | 71 | 0 | 4.0 | 4.0 | 0.00 | 0.00 | 0.00 | 6 | 1009.0 |
| 20260507102633 | 71 | 225 | 2.0 | 2.0 | 0.00 | 0.00 | 0.00 | 6 | 1009.0 |
| 20260507102038 | 70 | 225 | 4.0 | 4.0 | 0.00 | 0.00 | 0.00 | 7 | 1009.0 |
| 20260507101440 | 70 | 2.0 | 4.0 | 0.00 | 0.00 | 0.00 | 7 | 1009.0 | |
| 20260507100845 | 70 | 23 | 2.0 | 2.0 | 0.00 | 0.00 | 0.00 | 6 | 1009.0 |
| 20260507100246 | 70 | 0 | 3.0 | 3.0 | 0.00 | 0.00 | 0.00 | 6 | 1009.0 |
| 20260507095647 | 69 | 0.0 | 3.0 | 0.00 | 0.00 | 0.00 | 7 | 1009.0 | |
| 20260507095049 | 69 | 0 | 3.0 | 3.0 | 0.00 | 0.00 | 0.00 | 7 | 1009.0 |
| 20260507094453 | 69 | 45 | 6.0 | 6.0 | 0.00 | 0.00 | 0.00 | 7 | 1009.0 |
| 20260507093855 | 69 | 45 | 2.0 | 2.0 | 0.00 | 0.00 | 0.00 | 7 | 1009.0 |
| 20260507093300 | 68 | 0.0 | 1.0 | 0.00 | 0.00 | 0.00 | 7 | 1009.0 | |
| 20260507092704 | 67 | 0.0 | 2.0 | 0.00 | 0.00 | 0.00 | 7 | 1009.0 | |
| 20260507092107 | 67 | 45 | 1.0 | 1.0 | 0.00 | 0.00 | 0.00 | 7 | 1009.0 |
| 20260507091513 | 67 | 0 | 1.0 | 1.0 | 0.00 | 0.00 | 0.00 | 7 | 1009.0 |
| 20260507090917 | 66 | 0 | 1.0 | 3.0 | 0.00 | 0.00 | 0.00 | 7 | 1009.0 |
| 20260507090322 | 66 | 45 | 1.0 | 2.0 | 0.00 | 0.00 | 0.00 | 7 | 1009.0 |
| 20260507085726 | 66 | 45 | 3.0 | 3.0 | 0.00 | 0.00 | 0.00 | 7 | 1009.0 |
| 20260507085131 | 65 | 45 | 3.0 | 5.0 | 0.00 | 0.00 | 0.00 | 7 | 1009.0 |
| 20260507084536 | 65 | 45 | 4.0 | 4.0 | 0.00 | 0.00 | 0.00 | 7 | 1009.0 |
| 20260507083941 | 65 | 45 | 4.0 | 4.0 | 0.00 | 0.00 | 0.00 | 7 | 1009.0 |
| 20260507083346 | 65 | 45 | 4.0 | 4.0 | 0.00 | 0.00 | 0.00 | 8 | 1009.0 |
| 20260507082751 | 64 | 45 | 2.0 | 2.0 | 0.00 | 0.00 | 0.00 | 8 | 1009.0 |
| 20260507082152 | 64 | 45 | 1.0 | 2.0 | 0.00 | 0.00 | 0.00 | 8 | 1009.0 |
| 20260507081556 | 63 | 180 | 0.0 | 1.0 | 0.00 | 0.00 | 0.00 | 8 | 1009.0 |
| 20260507081001 | 62 | 45 | 1.0 | 2.0 | 0.00 | 0.00 | 0.00 | 8 | 1009.0 |
| 20260507080402 | 62 | 0 | 3.0 | 3.0 | 0.00 | 0.00 | 0.00 | 9 | 1009.0 |
| 20260507075807 | 62 | 0 | 3.0 | 3.0 | 0.00 | 0.00 | 0.00 | 9 | 1009.0 |
| 20260507075212 | 62 | 0 | 2.0 | 3.0 | 0.00 | 0.00 | 0.00 | 8 | 1009.0 |
| 20260507074617 | 62 | 315 | 2.0 | 3.0 | 0.00 | 0.00 | 0.00 | 9 | 1009.0 |
| 20260507074021 | 62 | 0 | 3.0 | 4.0 | 0.00 | 0.00 | 0.00 | 9 | 1009.0 |
| 20260507073426 | 62 | 0 | 3.0 | 4.0 | 0.00 | 0.00 | 0.00 | 8 | 1009.0 |
| 20260507072830 | 62 | 0 | 4.0 | 4.0 | 0.00 | 0.00 | 0.00 | 8 | 1009.0 |
| 20260507072235 | 62 | 23 | 0.0 | 1.0 | 0.00 | 0.00 | 0.00 | 8 | 1009.0 |
| 20260507071640 | 62 | 315 | 0.0 | 3.0 | 0.00 | 0.00 | 0.00 | 8 | 1009.0 |
| 20260507071044 | 62 | 0 | 3.0 | 4.0 | 0.00 | 0.00 | 0.00 | 8 | 1008.0 |
| 20260507070450 | 62 | 0 | 3.0 | 4.0 | 0.00 | 0.00 | 0.00 | 8 | 1008.0 |
| 20260507065854 | 62 | 0 | 2.0 | 2.0 | 0.00 | 0.00 | 0.00 | 9 | 1008.0 |
| 20260507065259 | 62 | 180 | 0.0 | 0.0 | 0.00 | 0.00 | 0.00 | 8 | 1008.0 |
| 20260507064704 | 62 | 270 | 1.0 | 2.0 | 0.00 | 0.00 | 0.00 | 8 | 1008.0 |
| 20260507064105 | 62 | 0 | 1.0 | 4.0 | 0.00 | 0.00 | 0.00 | 8 | 1008.0 |
| 20260507063510 | 62 | 0 | 4.0 | 4.0 | 0.00 | 0.00 | 0.00 | 9 | 1008.0 |
| 20260507062912 | 62 | 135 | 2.0 | 2.0 | 0.00 | 0.00 | 0.00 | 9 | 1008.0 |
| 20260507062313 | 62 | 180 | 0.0 | 0.0 | 0.00 | 0.00 | 0.00 | 8 | 1008.0 |
| 20260507061714 | 62 | 225 | 0.0 | 0.0 | 0.00 | 0.00 | 0.00 | 8 | 1008.0 |
| 20260507061119 | 62 | 225 | 0.0 | 2.0 | 0.00 | 0.00 | 0.00 | 8 | 1008.0 |
| 20260507060524 | 62 | 135 | 2.0 | 2.0 | 0.00 | 0.00 | 0.00 | 8 | 1008.0 |
| 20260507055929 | 62 | 135 | 2.0 | 2.0 | 0.00 | 0.00 | 0.00 | 8 | 1008.0 |
| 20260507055334 | 62 | 135 | 2.0 | 2.0 | 0.00 | 0.00 | 0.00 | 8 | 1008.0 |
| 20260507054738 | 62 | 135 | 1.0 | 2.0 | 0.00 | 0.00 | 0.00 | 8 | 1008.0 |
| 20260507054143 | 62 | 45 | 0.0 | 3.0 | 0.00 | 0.00 | 0.00 | 8 | 1008.0 |
| 20260507053548 | 62 | 0 | 2.0 | 2.0 | 0.00 | 0.00 | 0.00 | 8 | 1008.0 |
| 20260507052952 | 62 | 270 | 0.0 | 2.0 | 0.00 | 0.00 | 0.00 | 8 | 1008.0 |
| 20260507052357 | 62 | 338 | 1.0 | 1.0 | 0.00 | 0.00 | 0.00 | 8 | 1008.0 |
| 20260507051802 | 62 | 45 | 0.0 | 0.0 | 0.00 | 0.00 | 0.00 | 8 | 1008.0 |
| 20260507051207 | 62 | 45 | 0.0 | 1.0 | 0.00 | 0.00 | 0.00 | 8 | 1008.0 |
| 20260507050611 | 62 | 0 | 2.0 | 3.0 | 0.00 | 0.00 | 0.00 | 8 | 1007.0 |
| 20260507050016 | 62 | 0 | 2.0 | 2.0 | 0.00 | 0.00 | 0.00 | 8 | 1007.0 |
| 20260507045421 | 62 | 45 | 0.0 | 0.0 | 0.00 | 0.00 | 0.00 | 8 | 1007.0 |
| 20260507044825 | 62 | 45 | 1.0 | 2.0 | 0.00 | 0.00 | 0.00 | 8 | 1007.0 |
| 20260507043717 | 61 | 0 | 2.0 | 3.0 | 0.00 | 0.00 | 0.00 | 8 | 1007.0 |
| 20260507043121 | 61 | 0 | 1.0 | 4.0 | 0.00 | 0.00 | 0.00 | 8 | 1007.0 |
| 20260507042523 | 61 | 45 | 3.0 | 3.0 | 0.00 | 0.00 | 0.00 | 8 | 1007.0 |
| 20260507041928 | 61 | 135 | 0.0 | 1.0 | 0.00 | 0.00 | 0.00 | 8 | 1007.0 |
| 20260507041329 | 61 | 45 | 0.0 | 3.0 | 0.00 | 0.00 | 0.00 | 8 | 1007.0 |
| 20260507040734 | 61 | 45 | 2.0 | 3.0 | 0.00 | 0.00 | 0.00 | 8 | 1007.0 |
| 20260507040135 | 61 | 315 | 1.0 | 1.0 | 0.00 | 0.00 | 0.00 | 8 | 1007.0 |
| 20260507035539 | 61 | 0 | 2.0 | 5.0 | 0.00 | 0.00 | 0.00 | 8 | 1007.0 |
| 20260507034944 | 61 | 45 | 4.0 | 4.0 | 0.00 | 0.00 | 0.00 | 8 | 1007.0 |
| 20260507034349 | 61 | 270 | 0.0 | 3.0 | 0.00 | 0.00 | 0.00 | 8 | 1007.0 |
| 20260507033754 | 61 | 0 | 4.0 | 4.0 | 0.00 | 0.00 | 0.00 | 8 | 1007.0 |
| 20260507032645 | 61 | 293 | 0.0 | 2.0 | 0.00 | 0.00 | 0.00 | 8 | 1007.0 |
| 20260507032050 | 61 | 270 | 0.0 | 0.0 | 0.00 | 0.00 | 0.00 | 8 | 1007.0 |
| 20260507031455 | 61 | 45 | 0.0 | 1.0 | 0.00 | 0.00 | 0.00 | 8 | 1007.0 |
| 20260507030859 | 61 | 315 | 0.0 | 0.0 | 0.00 | 0.00 | 0.00 | 8 | 1007.0 |
| 20260507030303 | 61 | 180 | 0.0 | 0.0 | 0.00 | 0.00 | 0.00 | 8 | 1007.0 |
| 20260507025708 | 61 | 180 | 0.0 | 2.0 | 0.00 | 0.00 | 0.00 | 8 | 1007.0 |
| 20260507024559 | 61 | 180 | 0.0 | 0.0 | 0.00 | 0.00 | 0.00 | 8 | 1007.0 |
| 20260507024001 | 61 | 180 | 0.0 | 0.0 | 0.00 | 0.00 | 0.00 | 8 | 1007.0 |
| 20260507023405 | 61 | 180 | 0.0 | 2.0 | 0.00 | 0.00 | 0.00 | 8 | 1007.0 |
| 20260507022810 | 61 | 180 | 0.0 | 0.0 | 0.00 | 0.00 | 0.00 | 8 | 1007.0 |
| 20260507022215 | 62 | 225 | 0.0 | 1.0 | 0.00 | 0.00 | 0.00 | 8 | 1007.0 |
| 20260507021620 | 62 | 315 | 0.0 | 0.0 | 0.00 | 0.00 | 0.00 | 7 | 1006.0 |
| 20260507021024 | 62 | 180 | 0.0 | 0.0 | 0.00 | 0.00 | 0.00 | 7 | 1006.0 |
| 20260507020429 | 62 | 180 | 0.0 | 0.0 | 0.00 | 0.00 | 0.00 | 7 | 1006.0 |
| 20260507015833 | 62 | 180 | 0.0 | 0.0 | 0.00 | 0.00 | 0.00 | 7 | 1006.0 |
| 20260507015238 | 62 | 180 | 0.0 | 0.0 | 0.00 | 0.00 | 0.00 | 7 | 1006.0 |
| 20260507014643 | 63 | 135 | 0.0 | 1.0 | 0.00 | 0.00 | 0.00 | 7 | 1006.0 |
| 20260507014047 | 63 | 180 | 0.0 | 0.0 | 0.00 | 0.00 | 0.00 | 7 | 1006.0 |
| 20260507013452 | 63 | 180 | 0.0 | 0.0 | 0.00 | 0.00 | 0.00 | 7 | 1006.0 |
| 20260507012344 | 63 | 180 | 0.0 | 2.0 | 0.00 | 0.00 | 0.00 | 7 | 1006.0 |
| 20260507011749 | 63 | 135 | 0.0 | 2.0 | 0.00 | 0.00 | 0.00 | 7 | 1006.0 |
| 20260507011150 | 63 | 135 | 2.0 | 2.0 | 0.00 | 0.00 | 0.00 | 7 | 1006.0 |
| 20260507010555 | 63 | 45 | 1.0 | 2.0 | 0.00 | 0.00 | 0.00 | 7 | 1006.0 |
| 20260507010000 | 63 | 45 | 2.0 | 2.0 | 0.00 | 0.00 | 0.00 | 7 | 1006.0 |
| 20260507005401 | 63 | 0.0 | 2.0 | 0.00 | 0.00 | 0.00 | 7 | 1006.0 | |
| 20260507004806 | 63 | 135 | 0.0 | 4.0 | 0.00 | 0.00 | 0.00 | 7 | 1006.0 |
| 20260507004212 | 63 | 45 | 4.0 | 4.0 | 0.00 | 0.00 | 0.00 | 7 | 1007.0 |
| 20260507003616 | 63 | 45 | 0.0 | 0.0 | 0.00 | 0.00 | 0.00 | 7 | 1006.0 |
| 20260507003021 | 63 | 0.0 | 0.0 | 0.00 | 0.00 | 0.00 | 7 | 1006.0 | |
| 20260507002426 | 63 | 135 | 1.0 | 2.0 | 0.00 | 0.00 | 0.00 | 7 | 1006.0 |
| 20260507001831 | 63 | 180 | 0.0 | 0.0 | 0.00 | 0.00 | 0.00 | 7 | 1006.0 |
| 20260507001232 | 63 | 225 | 0.0 | 2.0 | 0.00 | 0.00 | 0.00 | 7 | 1006.0 |
| 20260507000637 | 64 | 180 | 0.0 | 1.0 | 0.00 | 0.00 | 0.00 | 7 | 1006.0 |
| 20260507000042 | 64 | 135 | 0.0 | 2.0 | 0.00 | 0.00 | 0.00 | 7 | 1006.0 |
| 20260506235447 | 64 | 135 | 0.0 | 2.0 | 0.00 | 0.00 | 0.00 | 7 | 1006.0 |
| 20260506234338 | 63 | 180 | 0.0 | 1.0 | 0.00 | 0.00 | 0.00 | 7 | 1006.0 |
| 20260506233743 | 64 | 1.0 | 3.0 | 0.00 | 0.00 | 0.00 | 7 | 1006.0 | |
| 20260506233147 | 64 | 135 | 0.0 | 1.0 | 0.00 | 0.00 | 0.00 | 7 | 1006.0 |
| 20260506232552 | 64 | 0 | 0.0 | 2.0 | 0.00 | 0.00 | 0.00 | 7 | 1006.0 |
| 20260506231957 | 64 | 45 | 2.0 | 2.0 | 0.00 | 0.00 | 0.00 | 7 | 1006.0 |
| 20260506231402 | 64 | 45 | 0.0 | 0.0 | 0.00 | 0.00 | 0.00 | 7 | 1006.0 |
| 20260506230803 | 64 | 135 | 0.0 | 0.0 | 0.00 | 0.00 | 0.00 | 7 | 1006.0 |
| 20260506230205 | 64 | 135 | 0.0 | 1.0 | 0.00 | 0.00 | 0.00 | 7 | 1006.0 |
| 20260506225610 | 64 | 180 | 0.0 | 0.0 | 0.00 | 0.00 | 0.00 | 7 | 1006.0 |
| 20260506225014 | 64 | 180 | 0.0 | 1.0 | 0.00 | 0.00 | 0.00 | 7 | 1006.0 |
| 20260506224418 | 64 | 180 | 0.0 | 1.0 | 0.00 | 0.00 | 0.00 | 7 | 1006.0 |
| 20260506223823 | 64 | 45 | 2.0 | 3.0 | 0.00 | 0.00 | 0.00 | 7 | 1006.0 |
| 20260506223227 | 64 | 2.0 | 2.0 | 0.00 | 0.00 | 0.00 | 7 | 1006.0 | |
| 20260506222632 | 64 | 225 | 0.0 | 0.0 | 0.00 | 0.00 | 0.00 | 7 | 1006.0 |
| 20260506222033 | 65 | 270 | 0.0 | 0.0 | 0.00 | 0.00 | 0.00 | 7 | 1006.0 |
| 20260506221438 | 65 | 0.0 | 0.0 | 0.00 | 0.00 | 0.00 | 6 | 1006.0 | |
| 20260506220843 | 65 | 180 | 0.0 | 0.0 | 0.00 | 0.00 | 0.00 | 7 | 1006.0 |
| 20260506220247 | 65 | 0.0 | 1.0 | 0.00 | 0.00 | 0.00 | 7 | 1006.0 | |
| 20260506215652 | 65 | 45 | 1.0 | 1.0 | 0.00 | 0.00 | 0.00 | 7 | 1006.0 |
| 20260506215053 | 65 | 45 | 3.0 | 3.0 | 0.00 | 0.00 | 0.00 | 7 | 1006.0 |
| 20260506214458 | 66 | 315 | 0.0 | 0.0 | 0.00 | 0.00 | 0.00 | 7 | 1006.0 |